BEIDOU-3 M25 (C47)

Last updated on Mon Oct 20 2025 00:03:25 GMT+0000 (Coordinated Universal Time)

1 61186U 24168B 25292.09905975 -.00000064 00000+0 00000+0 0 9996 2 61186 54.6889 310.6133 0005347 284.5657 256.5967 1.86230255 7297
UTC large
Height (km)
Speed (km/s)
/
Latitude / Longitude
Inclination (degrees)
Orbital Period (minutes)
Azimuth
Elevation
Range (km)
Doppler Factor

Next 0 passes for location: London (51.5072 / 0.1276)

Sorry there are no passes over London.